Location: *
(49.5647°N, 8.2922°E)
Time: 18:32:55
(UTC+00:00)

Daily predictions for brighter satellites

Satellite Brightness Start Highest point End
(mag) Time Altitude Azimuth Time Altitude Azimuth Time Altitude Azimuth
ATLAS CENTAUR R/B 3.9 16:31:31 10° WSW 16:36:46 73° NNW 16:51:49 10° ENE
SMAP 3.1 16:38:25 10° SSE 16:43:04 82° ENE 16:47:46 10° NNW
Starlink M 3.6 16:43:26 10° WNW 16:46:34 43° N 16:49:41 10° ENE
Timation 2 Rocket 4.4 16:40:31 10° SW 16:46:37 64° NW 16:53:04 10° NNE
CORIOLIS 4.1 16:43:14 10° SSE 16:48:36 79° ENE 16:53:58 10° NNW
Cosmos 2341 Rocket 4.2 16:44:06 10° SSE 16:50:14 53° E 16:56:22 10° NNE
Cosmos 1125 Rocket 3.9 16:47:26 10° SW 16:52:36 65° WNW 16:57:50 10° NNE
Cosmos 1939 Rocket 4.3 16:50:52 10° ESE 16:53:34 18° ENE 16:56:18 10° NNE
USA 32 4.2 16:49:01 10° SSE 16:54:04 53° E 16:59:09 10° NNE
Cosmos 1689 Rocket 3.8 16:52:32 10° N 16:55:16 33° WNW 16:57:58 10° SW
Cosmos 1242 Rocket 3.9 16:53:03 10° SW 16:56:25 40° WNW 16:59:51 10° N
Cosmos 1602 Rocket 3.9 16:54:21 10° SSW 16:58:42 70° W 17:03:03 10° N
Envisat 3.0 16:53:58 10° SSE 16:59:01 72° ENE 17:04:07 10° N
SL-16 R/B 2.2 16:54:40 10° NNW 17:00:20 63° ENE 17:05:56 10° SE
Iridium 96 4.0 17:02:48 10° NNE 17:05:06 38° E 17:07:29 10° SSE
Meteor 2-10 Rocket 3.6 17:00:05 10° N 17:05:19 56° ENE 17:10:20 10° SSE
USA 267 3.3 17:01:24 10° ENE 17:07:58 82° SE 17:14:32 10° SW
Cosmos 2082 4.1 17:04:57 10° S 17:10:15 45° ESE 17:15:36 10° NE
Cosmos 2219 3.3 17:04:57 10° SSW 17:10:34 81° WNW 17:16:16 10° NNE
Cosmos 1953 Rocket 3.9 17:08:06 10° SSE 17:12:23 46° E 17:16:42 10° NNE
COSMO-SKYMED 1 3.0 17:09:16 10° NNE 17:13:23 40° E 17:17:27 10° SSE
Cosmos 2218 Rocket 4.3 17:07:57 10° SSE 17:14:01 49° E 17:20:10 10° NNE
Cosmos 1842 Rocket 4.5 17:10:41 10° N 17:14:32 27° ENE 17:18:21 10° SE
Cosmos 2297 Rocket 2.2 17:10:26 10° SSW 17:16:06 83° ESE 17:21:48 10° NNE
Cosmos 1758 Rocket 3.5 17:12:14 10° S 17:16:32 82° E 17:20:54 10° NNE
SL-8 R/B 4.1 17:12:43 10° SW 17:17:25 54° SSE 17:21:14 15° E
Starlink AR 3.2 17:22:13 10° WNW 17:24:44 38° N 17:25:52 24° ENE
Cosmos 2263 Rocket 3.8 17:22:26 10° ESE 17:24:31 13° E 17:24:31 13° E
Cosmos 2227 Rocket 2.2 17:23:40 10° SSW 17:29:20 88° WNW 17:35:02 10° NNE
ISS -3.7 17:26:39 10° WSW 17:30:02 75° SSE 17:31:56 24° ENE
NOAA 11 4.3 17:26:16 10° SE 17:31:36 55° ENE 17:36:57 10° N
Starlink T 3.5 17:28:41 10° WNW 17:31:46 44° N 17:33:12 25° ENE
CZ-4 R/B 1.3 17:28:52 10° SSE 17:32:56 69° ENE 17:37:07 10° N
Starlink N 3.4 17:30:36 10° WNW 17:33:41 44° N 17:35:02 26° ENE
YAOGAN 6 2.9 17:30:37 10° S 17:34:15 69° WSW 17:37:54 10° NNW
ATLAS CENTAUR R/B 1.1 17:31:20 10° NW 17:35:27 88° NE 17:39:13 10° SE
Starlink Q 3.4 17:32:45 10° WNW 17:35:50 45° N 17:37:06 28° ENE
Shenzhou-11 Module 3.8 17:35:16 10° SW 17:37:19 19° S 17:38:36 14° SE
SKYMED 3 4.5 17:33:00 10° NNE 17:37:21 69° ESE 17:41:41 10° S
Starlink P 3.4 17:34:44 10° WNW 17:37:50 45° N 17:39:01 29° ENE
Cosmos 1328 3.7 17:34:07 10° S 17:38:06 68° E 17:42:06 10° NNE
Cosmos 1825 Rocket 3.9 17:35:01 10° SSW 17:39:20 67° WNW 17:43:39 10° N
Starlink U 3.4 17:36:44 10° WNW 17:39:49 45° N 17:40:56 31° ENE
USA 116 3.8 17:40:55 31° ENE 17:41:24 33° E 17:44:15 10° SSE
Starlink B 3.4 17:38:44 10° WNW 17:41:51 46° N 17:42:52 32° ENE
Cosmos 2366 rocket 3.9 17:36:05 10° S 17:42:17 73° E 17:48:35 10° NNE
CZ-2C R/B 4.5 17:41:56 20° ENE 17:42:24 20° NE 17:46:26 10° N
Ariane Rocket 3.6 17:38:04 10° SE 17:42:34 33° ENE 17:47:07 10° N
Cosmos 1943 3.7 17:38:33 10° NNW 17:43:46 37° NE 17:47:05 20° ESE
USA 234 4.0 17:37:41 10° SE 17:44:02 54° SW 17:50:27 10° WNW
Cosmos 2221 2.8 17:46:30 10° N 17:50:36 43° ENE 17:54:42 10° SSE
Okean-O 4.1 17:51:22 10° SSW 17:55:33 40° W 17:59:45 10° NNW
Starlink D 3.3 17:52:28 10° WNW 17:55:36 49° N 17:56:06 44° NE
Starlink S 3.2 17:54:34 10° WNW 17:57:42 50° N 17:58:07 46° NE
CSL-04 Debris 4.1 17:52:42 10° SSE 17:58:06 89° ENE 18:03:34 10° NNW
Cosmos 1356 Rocket 3.3 17:54:32 10° NNW 17:58:37 87° WSW 18:02:43 10° S
ADEOS Rocket 3.6 17:52:37 10° NNE 17:59:02 43° E 18:06:00 10° SSE
Cosmos 44 3.3 17:54:56 10° SW 17:59:27 66° NW 18:02:12 22° NNE
Starlink C 3.2 17:56:36 10° WNW 17:59:45 51° NNE 18:00:05 48° NE
Cosmos 614 Rocket 4.2 17:55:12 10° NNW 18:00:14 46° ENE 18:03:06 24° ESE
ERBS 3.5 17:57:48 10° W 18:00:50 31° NNW 18:01:43 27° NNE
SKYMED 2 3.8 17:57:11 10° N 18:01:31 70° WNW 18:05:50 10° SSW
Starlink E 3.2 17:58:43 10° WNW 18:01:53 52° NNE 18:02:07 50° NNE
ATLAS 5 CENTAUR R/B 3.5 17:59:24 10° NW 18:03:34 56° NE 18:15:53 14° ESE
Starlink J 3.2 18:00:49 10° WNW 18:03:59 52° NNE 18:04:09 52° NNE
Starlink AS 3.1 18:02:16 10° WNW 18:04:57 50° N 18:04:57 50° N
Starlink BA 3.1 18:02:30 10° WNW 18:05:10 50° N 18:05:10 50° N
Starlink AU 3.1 18:02:43 10° WNW 18:05:23 49° N 18:05:23 49° N
Starlink AT 3.1 18:02:56 10° WNW 18:05:35 49° N 18:05:35 49° N
Cosmos 1703 3.7 18:02:01 10° SSW 18:05:57 62° WNW 18:09:54 10° N
Starlink BB 3.1 18:03:10 10° WNW 18:05:49 49° N 18:05:49 49° N
Starlink V 3.2 18:02:55 10° WNW 18:06:05 53° NNE 18:06:09 53° NNE
Starlink BC 3.2 18:03:23 10° WNW 18:06:01 49° N 18:06:01 49° N
Starlink BK 3.2 18:03:36 10° WNW 18:06:14 49° N 18:06:14 49° N
Starlink AY 3.2 18:03:51 10° WNW 18:06:28 49° N 18:06:28 49° N
Starlink AW 3.2 18:04:04 10° WNW 18:06:41 49° N 18:06:41 49° N
Starlink BJ 3.2 18:04:17 10° WNW 18:06:53 49° N 18:06:53 49° N
IRS-1A Rocket 4.4 18:01:44 10° SE 18:07:15 51° ENE 18:12:42 10° N
Starlink AV 3.2 18:04:31 10° WNW 18:07:07 49° N 18:07:07 49° N
Starlink BD 3.2 18:04:44 10° WNW 18:07:20 49° NNW 18:07:20 49° NNW
Starlink BE 3.2 18:04:57 10° WNW 18:07:34 50° N 18:07:34 50° N
Starlink BM 3.2 18:05:12 10° WNW 18:07:46 49° NNW 18:07:46 49° NNW
Starlink H 3.2 18:05:03 10° WNW 18:08:12 54° NNE 18:08:12 54° NNE
Starlink AX 3.2 18:05:26 10° WNW 18:08:00 49° NNW 18:08:00 49° NNW
Starlink BH 3.2 18:05:38 10° WNW 18:08:11 49° NNW 18:08:11 49° NNW
Starlink AZ 3.2 18:05:51 10° WNW 18:08:24 48° NNW 18:08:24 48° NNW
Starlink BG 3.2 18:06:05 10° WNW 18:08:37 48° NNW 18:08:37 48° NNW
Starlink BF 3.3 18:06:18 10° WNW 18:08:50 48° NNW 18:08:50 48° NNW
Starlink BL 3.2 18:06:31 10° WNW 18:09:05 49° NNW 18:09:05 49° NNW
Cosmos 1727 Rocket 4.0 18:03:16 10° N 18:09:29 82° W 18:15:38 10° S
Starlink AH 3.3 18:06:46 10° WNW 18:09:16 48° NNW 18:09:16 48° NNW
Starlink AQ 3.3 18:06:50 10° WNW 18:09:23 48° NNW 18:09:23 48° NNW
Starlink AC 3.3 18:07:00 10° WNW 18:09:29 48° NNW 18:09:29 48° NNW
Starlink X 3.3 18:07:13 10° WNW 18:09:43 48° NNW 18:09:43 48° NNW
Starlink AE 3.3 18:07:23 10° WNW 18:09:57 49° NNW 18:09:57 49° NNW
Starlink F 3.2 18:07:10 10° WNW 18:10:15 55° N 18:10:15 55° N
Starlink Z 3.3 18:07:38 10° WNW 18:10:07 47° NNW 18:10:07 47° NNW
Starlink AK 3.3 18:07:53 10° WNW 18:10:21 47° NNW 18:10:21 47° NNW
Starlink AL 3.3 18:08:08 10° WNW 18:10:35 47° NNW 18:10:35 47° NNW
Starlink AD 3.3 18:08:20 10° WNW 18:10:48 47° NNW 18:10:48 47° NNW
Starlink Y 3.4 18:08:47 10° WNW 18:11:13 47° NNW 18:11:13 47° NNW
Starlink AG 3.4 18:09:01 10° WNW 18:11:26 47° NNW 18:11:26 47° NNW
Starlink W 3.3 18:09:12 10° WNW 18:11:40 48° NNW 18:11:40 48° NNW
Starlink AJ 3.4 18:09:27 10° WNW 18:11:51 46° NNW 18:11:51 46° NNW
Starlink G 3.2 18:09:17 10° WNW 18:12:17 55° N 18:12:17 55° N
Starlink AM 3.4 18:09:55 10° WNW 18:12:19 46° NNW 18:12:19 46° NNW
Starlink AP 3.4 18:10:07 10° WNW 18:12:30 46° NNW 18:12:30 46° NNW
Starlink AA 3.4 18:10:22 10° WNW 18:12:44 46° NNW 18:12:44 46° NNW
Starlink AF 3.4 18:10:34 10° WNW 18:12:56 45° NNW 18:12:56 45° NNW
Starlink AB 3.5 18:10:48 10° WNW 18:13:10 45° NNW 18:13:10 45° NNW
Starlink AN 3.5 18:11:03 10° WNW 18:13:24 45° NNW 18:13:24 45° NNW
Starlink L 3.3 18:11:24 10° WNW 18:14:20 54° N 18:14:20 54° N
Starlink A 3.4 18:13:32 10° WNW 18:16:23 54° NNW 18:16:23 54° NNW
YAOGAN 1 3.3 18:14:16 10° S 18:18:30 53° W 18:22:46 10° NNW
CSL-04 Rocket 4.1 18:13:09 10° S 18:18:38 66° WSW 18:24:12 10° NNW
Starlink R 3.4 18:15:40 10° WNW 18:18:26 52° NNW 18:18:26 52° NNW
ATLAS 5 CENTAUR R/B 3.8 18:16:49 10° NW 18:20:11 18° N 18:21:38 16° NNE
Starlink K 3.5 18:17:47 10° WNW 18:20:28 51° NNW 18:20:28 51° NNW
DMSP B5D1-3 4.4 18:17:45 10° NNE 18:22:53 77° ESE 18:27:58 10° S
Starlink M 3.6 18:19:53 10° WNW 18:22:30 49° NW 18:22:30 49° NW
Cosmos 1140 Rocket 3.6 18:19:32 10° NNW 18:24:39 48° ENE 18:24:58 48° ENE
H-2A R/B 2.4 18:27:11 43° NE 18:27:11 43° NE 18:31:34 10° N
Cosmos 1939 Rocket 3.6 18:24:17 10° S 18:28:08 52° W 18:32:05 10° NNW
CZ-2D R/B 4.3 18:28:45 10° S 18:32:27 45° W 18:36:11 10° NNW
NOSS 3-3 (A) 4.4 18:25:47 10° NW 18:33:03 68° NE 18:36:30 37° ESE
NOSS 3-3 (C) 4.4 18:25:52 10° NW 18:33:09 67° NE 18:36:33 37° ESE
Cosmos 44 Rocket 3.2 18:36:53 10° SSW 18:41:16 64° SSE 18:41:16 64° SSE
SL-16 R/B 4.4 18:39:29 10° NW 18:44:00 25° WSW 18:48:30 10° SSW
Cosmos 1821 Rocket 3.9 18:43:15 10° S 18:49:38 89° W 18:55:58 10° N
Cosmos 2227 4.1 18:44:47 10° SSW 18:50:30 73° ESE 18:50:52 70° E
USA 267 3.7 18:48:27 37° NE 18:50:48 54° NNW 18:57:08 10° W
Cosmos 1603 4.1 18:51:50 10° NW 18:57:27 61° WSW 19:00:32 26° S
Cosmos 1190 Rocket 4.0 18:53:39 10° NNW 18:58:59 81° WSW 18:59:35 69° S
Cosmos 407 Rocket 3.7 18:53:51 10° NNW 18:59:08 70° WSW 19:00:24 50° S
SL-8 R/B 3.9 18:54:58 10° W 18:59:12 67° WSW 18:59:12 67° WSW
Cosmos 2297 Rocket 4.2 18:56:19 10° W 19:00:51 24° NW 19:04:53 12° N
ARGOS 3.4 19:05:26 58° N 19:05:26 58° N 19:09:46 10° NNW
BREEZE-M DEB (TANK) 4.5 18:33:10 10° WNW 19:05:39 79° SSW 19:08:16 50° SE
ISS -1.2 19:03:36 10° W 19:04:54 21° WNW 19:04:54 21° WNW
Cosmos 2263 Rocket 2.6 19:02:13 10° SSW 19:06:18 50° S 19:06:18 50° S
ATLAS CENTAUR R/B 4.3 19:12:18 10° W 19:13:36 11° WSW 19:14:53 10° SW
NOSS 3-2 (A) 4.3 19:07:58 10° SSW 19:11:18 35° S 19:11:18 35° S
Cosmos 2123 Rocket 4.0 19:07:34 10° NNW 19:13:55 79° W 19:16:37 37° S
Cosmos 2227 Rocket 4.3 19:09:54 10° W 19:14:14 22° NW 19:17:45 13° N
Cosmos 967 Rocket 4.4 19:12:01 10° NW 19:18:17 81° N 19:18:17 81° N
Ariane Rocket 4.2 19:16:43 10° SSW 19:21:28 40° W 19:26:15 10° NNW
CZ-2C R/B 3.7 19:22:59 52° NNW 19:22:59 52° NNW 19:27:17 10° NNW
Cosmos 1934 Rocket 4.0 19:16:53 10° SSW 19:29:06 10° N 19:22:15 70° SW
Cosmos 1943 4.0 19:22:35 10° NW 19:27:58 46° WSW 19:28:59 42° SW
ADEOS Rocket 4.2 19:38:15 10° N 19:44:33 46° WNW 19:51:26 10° SW
USA 238 DEB 4.3 19:46:54 10° SW 19:51:29 47° SW 19:51:29 47° SW
USA 238 4.3 19:47:02 10° SW 19:51:32 46° SW 19:51:32 46° SW
H-2A R/B 4.0 20:07:48 24° WNW 20:07:48 24° WNW 20:10:42 10° NW
ATLAS 5 CENTAUR R/B 4.4 20:02:00 10° NNW 20:03:10 16° NNW 20:03:10 16° NNW
